sat.trackr.live / text

‹ back to catalog

PROBA-V

NORAD 39159 · 2013-021A

PAYLOAD ACTIVE UNKNOWN

§ Identity

Operator
Country
ESA
Launch date
2013-05-07
Launch site
FRGUI
Launch vehicle
Mass (kg)
RCS (m²)
0.34

Purposes: tech_demo

External: N2YO · Heavens-Above · Gunter

§ Orbital elements

Epoch: 2026-05-25T04:57:02.547072Z

Period
101.15 min
Inclination
98.3574°
Eccentricity
0.0003904
Mean motion
14.23591514 rev/d
Perigee alt
810.4 km
Apogee alt
816.0 km
Semi-major
7,191.4 km
B*
4.9813e-5
RAAN
124.9494°
Arg perigee
182.9134°
Mean anomaly
177.2023°
Rev number
67,784

§ Raw data

PROBA-V1 39159U 13021A   26145.20627948  .00000072  00000+0  49813-4 0  99972 39159  98.3574 124.9494 0003904 182.9134 177.2023 14.23591514677841

JSON: /api/v1/satellites/39159 · /tle

For live sub-satellite position, see the globe view (requires WebGL).

§ Visibility from observer

Set your observer location to see the next 7 days of passes ≥ 10°. The values pass through the URL so the page stays shareable.

No JS? Fill the form by hand. The geolocation button needs JavaScript.

§ Radio — SatNOGS DB

ModeDescriptionDownlinkUplink
BPSK S-Band 128000 BPSK Experimental 2.235 GHz
BPSK S-Band BPSK (inactive) 2.235 GHz

2 transmitters · refreshed weekly from db.satnogs.org